Alva, OK

12:10 AM CDT on October 17, 2017 (GMT -0500)
Alva Regional

Weather History for KAVK - March, 2013

Change the Weather History Date:

Tuesday, March 19, 2013

  Actual Average Record
Temperature  
Mean Temperature 42 °F -  
Max Temperature 53 °F 63 °F 85 °F (1976)
Min Temperature 32 °F 36 °F 16 °F (1965)
Degree Days  
Heating Degree Days 22    
Moisture  
Dew Point 28 °F    
Average Humidity 58    
Maximum Humidity 80    
Minimum Humidity 43    
Precipitation  
Precipitation 0.00 in - - ()
Sea Level Pressure  
Sea Level Pressure 30.12 in    
Wind  
Wind Speed 8 mph (ESE)    
Max Wind Speed 15 mph    
Max Gust Speed 20 mph    
Visibility 10 miles    
Events      
Averages and records for this station are not official NWS values.
T = Trace of Precipitation, MM = Missing Value Source: NWS Daily Summary

Daily Weather History Graph

Daily Weather History Graph

Search for Another Location

Airport or City:

Trip Planner

Search our weather history database for the weather conditions in past years. The results will help you decide how hot, cold, wet, or windy it might be!

Date:

Astronomy

Mar. 19, 2013 Rise Set
Actual Time 7:39 AM CDT 7:45 PM CDT
Civil Twilight 7:13 AM CDT 8:11 PM CDT
Nautical Twilight 6:43 AM CDT 8:41 PM CDT
Astronomical Twilight 6:12 AM CDT 9:12 PM CDT
Moon 12:39 PM CDT (3/19) 2:25 AM CDT (3/19)
Length of Visible Light 12h 58m
Length of Day
12h 06m
Waxing Crescent, 50% of the Moon is Illuminated
Mar 19
Waxing Crescent
Mar 19
First Quarter
Mar 27
Full
Apr 2
Last Quarter
Apr 10
New

Hourly Weather History & Observations

Time (CDT) Temp. Windchill Dew Point Humidity Pressure Visibility Wind Dir Wind Speed Gust Speed Precip Events Conditions
12:10 AM 35.6 °F 28.6 °F 26.6 °F 70% 30.00 in 10.0 mi South 9.2 mph - N/A   Clear
12:30 AM 35.6 °F 28.6 °F 26.6 °F 70% 30.00 in 10.0 mi South 9.2 mph - N/A   Clear
12:50 AM 35.6 °F 28.6 °F 26.6 °F 70% 30.00 in 10.0 mi South 9.2 mph - N/A   Clear
1:10 AM 37.4 °F 31.4 °F 24.8 °F 60% 30.00 in 10.0 mi South 8.1 mph - N/A   Clear
1:30 AM 35.6 °F 29.2 °F 26.6 °F 70% 30.00 in 10.0 mi South 8.1 mph - N/A   Clear
1:50 AM 35.6 °F 29.9 °F 26.6 °F 70% 30.00 in 10.0 mi South 6.9 mph - N/A   Clear
2:10 AM 37.4 °F 32.8 °F 26.6 °F 65% 30.01 in 10.0 mi South 5.8 mph - N/A   Clear
2:30 AM 37.4 °F 32.1 °F 26.6 °F 65% 30.02 in 10.0 mi SSW 6.9 mph - N/A   Clear
2:50 AM 37.4 °F 32.8 °F 24.8 °F 60% 30.02 in 10.0 mi SSW 5.8 mph - N/A   Clear
3:10 AM 39.2 °F 35.0 °F 24.8 °F 56% 30.02 in 10.0 mi SSW 5.8 mph - N/A   Clear
3:30 AM 37.4 °F 34.9 °F 24.8 °F 60% 30.02 in 10.0 mi SSW 3.5 mph - N/A   Clear
3:50 AM 37.4 °F 34.9 °F 24.8 °F 60% 30.02 in 10.0 mi SSW 3.5 mph - N/A   Partly Cloudy
4:10 AM 37.4 °F - 24.8 °F 60% 30.02 in 10.0 mi Calm Calm - N/A   Partly Cloudy
4:30 AM 35.6 °F 28.0 °F 26.6 °F 70% 30.04 in 10.0 mi NE 10.4 mph - N/A   Partly Cloudy
4:50 AM 32.0 °F 23.6 °F 26.6 °F 80% 30.04 in 10.0 mi NE 10.4 mph - N/A   Clear
5:10 AM 32.0 °F 23.0 °F 26.6 °F 80% 30.05 in 10.0 mi NE 11.5 mph - N/A   Clear
5:30 AM 32.0 °F 22.5 °F 26.6 °F 80% 30.05 in 10.0 mi NE 12.7 mph - N/A   Clear
5:50 AM 32.0 °F 23.6 °F 26.6 °F 80% 30.07 in 10.0 mi NE 10.4 mph - N/A   Clear
6:10 AM 32.0 °F 24.2 °F 24.8 °F 75% 30.08 in 10.0 mi NE 9.2 mph - N/A   Clear
6:30 AM 32.0 °F 24.8 °F 24.8 °F 75% 30.09 in 10.0 mi ENE 8.1 mph - N/A   Clear
6:50 AM 32.0 °F 24.2 °F 24.8 °F 75% 30.09 in 10.0 mi NE 9.2 mph - N/A   Clear
7:10 AM 32.0 °F 24.8 °F 24.8 °F 75% 30.10 in 10.0 mi NE 8.1 mph - N/A   Partly Cloudy
7:30 AM 32.0 °F 24.2 °F 24.8 °F 75% 30.12 in 10.0 mi ENE 9.2 mph - N/A   Clear
7:50 AM 33.8 °F 24.8 °F 23.0 °F 65% 30.12 in 10.0 mi ENE 12.7 mph - N/A   Clear
8:10 AM 33.8 °F 24.8 °F 23.0 °F 65% 30.12 in 10.0 mi East 12.7 mph - N/A   Partly Cloudy
8:30 AM 35.6 °F 27.1 °F 23.0 °F 60% 30.13 in 10.0 mi East 12.7 mph - N/A   Partly Cloudy
8:50 AM 35.6 °F 27.1 °F 23.0 °F 60% 30.14 in 10.0 mi East 12.7 mph 17.3 mph N/A   Partly Cloudy
9:10 AM 35.6 °F 27.1 °F 23.0 °F 60% 30.15 in 10.0 mi East 12.7 mph 19.6 mph N/A   Clear
9:30 AM 37.4 °F 29.3 °F 24.8 °F 60% 30.15 in 10.0 mi East 12.7 mph - N/A   Clear
9:50 AM 39.2 °F 32.0 °F 24.8 °F 56% 30.16 in 10.0 mi East 11.5 mph - N/A   Clear
10:10 AM 39.2 °F 31.6 °F 24.8 °F 56% 30.17 in 10.0 mi ESE 12.7 mph - N/A   Clear
10:30 AM 41.0 °F 33.9 °F 24.8 °F 53% 30.16 in 10.0 mi ESE 12.7 mph - N/A   Clear
10:50 AM 41.0 °F 33.1 °F 24.8 °F 53% 30.16 in 10.0 mi ESE 15.0 mph 18.4 mph N/A   Clear
11:10 AM 42.8 °F 35.4 °F 24.8 °F 49% 30.15 in 10.0 mi ESE 15.0 mph - N/A   Clear
11:30 AM 44.6 °F 38.4 °F 26.6 °F 49% 30.15 in 10.0 mi SE 12.7 mph 18.4 mph N/A   Clear
11:50 AM 44.6 °F 38.4 °F 26.6 °F 49% 30.16 in 10.0 mi East 12.7 mph - N/A   Scattered Clouds
12:10 PM 44.6 °F 39.2 °F 26.6 °F 49% 30.16 in 10.0 mi ESE 10.4 mph - N/A   Overcast
12:30 PM 46.4 °F 41.5 °F 26.6 °F 46% 30.16 in 10.0 mi East 10.4 mph - N/A   Mostly Cloudy
12:50 PM 46.4 °F 41.5 °F 28.4 °F 50% 30.15 in 10.0 mi ESE 10.4 mph - N/A   Scattered Clouds
1:10 PM 48.2 °F - 28.4 °F 46% 30.15 in 10.0 mi SE 8.1 mph - N/A   Clear
1:30 PM 48.2 °F - 28.4 °F 46% 30.15 in 10.0 mi SE 8.1 mph - N/A   Clear
1:50 PM 50.0 °F - 30.2 °F 47% 30.14 in 10.0 mi SE 8.1 mph - N/A   Clear
2:10 PM 50.0 °F - 30.2 °F 47% 30.15 in 10.0 mi SE 6.9 mph - N/A   Clear
2:30 PM 50.0 °F - 32.0 °F 50% 30.14 in 10.0 mi South 8.1 mph - N/A   Clear
2:50 PM 50.0 °F - 30.2 °F 47% 30.14 in 10.0 mi SSW 4.6 mph - N/A   Clear
3:10 PM 50.0 °F - 28.4 °F 43% 30.13 in 10.0 mi Calm Calm - N/A   Clear
3:30 PM 51.8 °F - 30.2 °F 44% 30.13 in 10.0 mi ENE 3.5 mph - N/A   Clear
3:50 PM 51.8 °F - 30.2 °F 44% 30.12 in 10.0 mi ENE 3.5 mph - N/A   Clear
4:10 PM 53.6 °F - 32.0 °F 44% 30.13 in 10.0 mi ENE 3.5 mph - N/A   Clear
4:30 PM 53.6 °F - 32.0 °F 44% 30.13 in 10.0 mi NW 3.5 mph - N/A   Clear
4:50 PM 53.6 °F - 32.0 °F 44% 30.12 in 10.0 mi SW 3.5 mph - N/A   Clear
5:10 PM 53.6 °F - 32.0 °F 44% 30.13 in 10.0 mi Calm Calm - N/A   Clear
5:30 PM 53.6 °F - 32.0 °F 44% 30.12 in 10.0 mi Calm Calm - N/A   Clear
5:50 PM 53.6 °F - 32.0 °F 44% 30.13 in 10.0 mi SW 3.5 mph - N/A   Clear
6:10 PM 53.6 °F - 32.0 °F 44% 30.13 in 10.0 mi SW 3.5 mph - N/A   Clear
6:50 PM 51.8 °F - 32.0 °F 47% 30.14 in 10.0 mi Calm Calm - N/A   Clear
7:10 PM 50.0 °F - 33.8 °F 54% 30.14 in 10.0 mi SE 4.6 mph - N/A   Clear
7:30 PM 50.0 °F - 35.6 °F 58% 30.14 in 10.0 mi East 8.1 mph - N/A   Clear
7:50 PM 48.2 °F - 35.6 °F 62% 30.15 in 10.0 mi East 8.1 mph - N/A   Clear
8:30 PM 48.2 °F - 32.0 °F 54% 30.17 in 10.0 mi NE 8.1 mph - N/A   Clear
8:50 PM 46.4 °F 42.4 °F 32.0 °F 57% 30.19 in 10.0 mi ENE 8.1 mph - N/A   Partly Cloudy
9:10 PM 46.4 °F 41.9 °F 32.0 °F 57% 30.20 in 10.0 mi ENE 9.2 mph - N/A   Partly Cloudy
9:30 PM 44.6 °F 39.7 °F 30.2 °F 57% 30.20 in 10.0 mi ENE 9.2 mph - N/A   Scattered Clouds
9:50 PM 44.6 °F 39.7 °F 28.4 °F 53% 30.22 in 10.0 mi ENE 9.2 mph - N/A   Mostly Cloudy
10:10 PM 44.6 °F 40.2 °F 28.4 °F 53% 30.23 in 10.0 mi ENE 8.1 mph - N/A   Overcast
10:30 PM 42.8 °F 38.0 °F 28.4 °F 57% 30.23 in 10.0 mi ENE 8.1 mph - N/A   Overcast
10:50 PM 41.0 °F 35.8 °F 28.4 °F 61% 30.24 in 10.0 mi ENE 8.1 mph - N/A   Overcast
11:10 PM 41.0 °F 35.2 °F 28.4 °F 61% 30.26 in 10.0 mi NNE 9.2 mph - N/A   Overcast
11:50 PM 37.4 °F 31.4 °F 28.4 °F 70% 30.28 in 10.0 mi NE 8.1 mph - N/A   Partly Cloudy